KB6LA Weather Reports


time (UTC)temp
C
wind
direction
speed
KPH
gust
KPH
rain 1hr
cm
rain 24hr
cm
rain mn
cm
humidity
%
barometer
mb
20260831124714 18 337 3.2 4.8 0.00 0.00 0.00 85 1011.1
20260831124207 18 333 1.6 4.8 0.00 0.00 0.00 85 1011.1
20260831123701 18 325 1.6 4.8 0.00 0.00 0.00 85 1011.1
20260831123154 18 313 3.2 4.8 0.00 0.00 0.00 85 1011.1
20260831122648 18 327 1.6 3.2 0.00 0.00 0.00 85 1011.1
20260831122142 18 317 1.6 3.2 0.00 0.00 0.00 85 1011.1
20260831121128 18 334 3.2 3.2 0.00 0.00 0.00 85 1011.1
20260831120622 18 314 0.0 3.2 0.00 0.00 0.00 85 1011.1
20260831120116 18 320 1.6 3.2 0.00 0.00 0.00 85 1011.1
20260831115104 18 331 3.2 4.8 0.00 0.00 0.00 85 1011.1
20260831113543 19 310 0.0 3.2 0.00 0.00 0.00 84 1011.1
20260831113036 19 318 1.6 3.2 0.00 0.00 0.00 85 1011.1
20260831112530 19 324 1.6 1.6 0.00 0.00 0.00 85 1011.1
20260831112024 19 330 1.6 1.6 0.00 0.00 0.00 85 1011.1
20260831111516 19 319 0.0 4.8 0.00 0.00 0.00 85 1011.1
20260831111010 19 308 0.0 4.8 0.00 0.00 0.00 84 1011.1
20260831110504 19 318 3.2 4.8 0.00 0.00 0.00 84 1011.1
20260831105957 19 324 3.2 3.2 0.00 0.00 0.00 84 1011.4
20260831105451 19 337 1.6 3.2 0.00 0.00 0.00 84 1011.1
20260831104945 19 336 0.0 3.2 0.00 0.00 0.00 84 1011.1
20260831103932 20 336 0.0 1.6 0.00 0.00 0.00 84 1011.1
20260831103424 20 336 0.0 1.6 0.00 0.00 0.00 83 1011.1
20260831102918 20 336 0.0 1.6 0.00 0.00 0.00 84 1011.1
20260831102412 20 336 1.6 3.2 0.00 0.00 0.00 84 1011.1
20260831101905 20 336 0.0 3.2 0.00 0.00 0.00 83 1011.1
20260831101359 20 322 1.6 3.2 0.00 0.00 0.00 83 1011.1
20260831100853 20 320 1.6 3.2 0.00 0.00 0.00 83 1011.1
20260831100346 20 316 0.0 3.2 0.00 0.00 0.00 83 1011.1
20260831095840 20 322 3.2 3.2 0.00 0.00 0.00 83 1011.4
20260831095333 20 319 0.0 3.2 0.00 0.00 0.00 83 1011.4
20260831094826 20 316 1.6 3.2 0.00 0.00 0.00 83 1011.1
20260831094320 20 257 0.0 3.2 0.00 0.00 0.00 83 1011.1
20260831093814 20 247 0.0 1.6 0.00 0.00 0.00 83 1011.1
20260831093307 20 231 0.0 4.8 0.00 0.00 0.00 83 1011.1
20260831092800 20 253 0.0 6.4 0.00 0.00 0.00 82 1011.1
20260831092254 20 170 3.2 6.4 0.00 0.00 0.00 82 1011.1
20260831091240 21 359 0.0 4.8 0.00 0.00 0.00 81 1011.1
20260831090734 21 355 1.6 4.8 0.00 0.00 0.00 81 1011.1
20260831090228 21 67 3.2 6.4 0.00 0.00 0.00 80 1011.1
20260831085722 21 89 4.8 9.7 0.00 0.00 0.00 79 1011.1
20260831085215 21 158 4.8 9.7 0.00 0.00 0.00 77 1011.1
20260831084708 21 214 1.6 6.4 0.00 0.00 0.00 76 1011.1
20260831083655 21 350 0.0 9.7 0.00 0.00 0.00 75 1011.1
20260831083149 21 70 4.8 9.7 0.00 0.00 0.00 75 1011.1
20260831082642 21 72 3.2 9.7 0.00 0.00 0.00 75 1011.1
20260831081629 21 90 3.2 6.4 0.00 0.00 0.00 75 1011.1
20260831081123 21 74 3.2 6.4 0.00 0.00 0.00 75 1011.1
20260831080616 21 57 4.8 6.4 0.00 0.00 0.00 74 1011.1
20260831075604 21 34 3.2 6.4 0.00 0.00 0.00 74 1011.1
20260831075056 21 108 3.2 6.4 0.00 0.00 0.00 75 1011.1
20260831074044 21 40 4.8 4.8 0.00 0.00 0.00 75 1011.1
20260831073538 21 109 3.2 3.2 0.00 0.00 0.00 75 1011.1
20260831073031 21 141 1.6 4.8 0.00 0.00 0.00 75 1010.7
20260831072524 21 17 3.2 4.8 0.00 0.00 0.00 75 1010.7
20260831071511 21 80 1.6 4.8 0.00 0.00 0.00 76 1010.7
20260831071005 21 17 1.6 4.8 0.00 0.00 0.00 76 1010.7
20260831070459 21 11 1.6 6.4 0.00 0.00 0.00 76 1010.7
20260831065952 21 0 1.6 6.4 0.00 0.00 0.00 76 1010.7
20260831065446 21 342 0.0 4.8 0.00 0.00 0.00 77 1010.7
20260831064938 21 121 3.2 4.8 0.00 0.00 0.00 77 1010.7
20260831064432 21 147 3.2 4.8 0.00 0.00 0.00 77 1010.7
20260831063926 21 54 1.6 6.4 0.00 0.00 0.00 78 1010.7
20260831063420 21 58 4.8 6.4 0.00 0.00 0.00 79 1010.7
20260831062406 21 104 1.6 4.8 0.00 0.00 0.00 79 1010.7
20260831061900 21 116 3.2 4.8 0.00 0.00 0.00 79 1010.7
20260831061354 21 238 1.6 6.4 0.00 0.00 0.00 79 1010.7
20260831060847 21 245 0.0 6.4 0.00 0.00 0.00 80 1010.7
20260831060340 21 171 3.2 6.4 0.00 0.00 0.00 80 1010.7
20260831055834 21 224 1.6 6.4 0.00 0.00 0.00 81 1010.7
20260831055327 21 188 3.2 6.4 0.00 0.00 0.00 81 1010.7
20260831054315 21 193 3.2 4.8 0.00 0.00 0.00 82 1010.7
20260831053808 21 184 4.8 6.4 0.00 0.00 0.00 82 1010.7
20260831053302 21 192 4.8 6.4 0.00 0.00 0.00 82 1010.7
20260831052248 21 261 0.0 6.4 0.00 0.00 0.00 82 1010.7
20260831051742 21 256 0.0 6.4 0.00 0.00 0.00 82 1010.7
20260831051236 21 188 4.8 6.4 0.00 0.00 0.00 82 1010.7
20260831050729 21 156 3.2 6.4 0.00 0.00 0.00 82 1010.7
20260831050223 21 230 3.2 9.7 0.00 0.00 0.00 81 1010.7
20260831044704 21 201 3.2 6.4 0.00 0.00 0.00 80 1010.7
20260831043650 21 231 1.6 3.2 0.00 0.00 0.00 79 1010.7
20260831042131 21 231 1.6 3.2 0.00 0.00 0.00 79 1010.4
20260831041624 21 218 3.2 4.8 0.00 0.00 0.00 79 1010.7
20260831041118 21 241 1.6 4.8 0.00 0.00 0.00 79 1010.4
20260831040105 21 267 1.6 4.8 0.00 0.00 0.00 78 1010.4
20260831035559 21 215 3.2 6.4 0.00 0.00 0.00 78 1010.4
20260831035051 21 209 3.2 6.4 0.00 0.00 0.00 78 1010.4
20260831034545 21 254 1.6 4.8 0.00 0.00 0.00 78 1010.1
20260831034039 21 212 3.2 4.8 0.00 0.00 0.00 79 1010.1
20260831033532 21 197 4.8 4.8 0.00 0.00 0.00 79 1010.1
20260831033025 21 233 3.2 4.8 0.00 0.00 0.00 79 1009.7
20260831032519 21 241 3.2 6.4 0.00 0.00 0.00 79 1009.7
20260831032012 21 208 3.2 6.4 0.00 0.00 0.00 79 1010.1
20260831031506 21 210 3.2 6.4 0.00 0.00 0.00 79 1009.7
20260831031000 21 238 3.2 6.4 0.00 0.00 0.00 79 1009.7
20260831030454 21 230 1.6 6.4 0.00 0.00 0.00 79 1009.7
20260831025946 21 250 3.2 6.4 0.00 0.00 0.00 79 1009.4
20260831025440 22 220 6.4 6.4 0.00 0.00 0.00 78 1009.7
20260831023922 22 222 3.2 6.4 0.00 0.00 0.00 79 1009.4
20260831023414 22 197 4.8 6.4 0.00 0.00 0.00 79 1009.4
20260831022907 22 208 4.8 6.4 0.00 0.00 0.00 79 1009.4
20260831022400 22 235 3.2 6.4 0.00 0.00 0.00 78 1009.4
20260831021854 22 211 6.4 6.4 0.00 0.00 0.00 77 1009.4
20260831021348 22 217 4.8 11.3 0.00 0.00 0.00 76 1009.4
20260831020841 23 227 3.2 11.3 0.00 0.00 0.00 76 1009.4
20260831020334 23 253 3.2 9.7 0.00 0.00 0.00 75 1009.4
20260831015828 23 201 6.4 6.4 0.00 0.00 0.00 74 1009.4
20260831015322 23 214 3.2 9.7 0.00 0.00 0.00 74 1009.0
20260831014815 23 228 4.8 9.7 0.00 0.00 0.00 74 1009.4
20260831014308 23 194 4.8 11.3 0.00 0.00 0.00 74 1009.4
20260831013802 23 224 3.2 12.9 0.00 0.00 0.00 73 1009.4
20260831013256 23 350 4.8 14.5 0.00 0.00 0.00 73 1009.4
20260831012750 23 217 8.0 14.5 0.00 0.00 0.00 71 1009.4
20260831011736 24 253 8.0 12.9 0.00 0.00 0.00 70 1009.4
20260831011229 24 200 4.8 12.9 0.00 0.00 0.00 69 1009.4
20260831010723 24 233 12.9 12.9 0.00 0.00 0.00 69 1009.4
20260831010217 24 225 8.0 12.9 0.00 0.00 0.00 69 1009.4
20260831005709 24 262 4.8 16.1 0.00 0.00 0.00 71 1009.4
20260831004150 24 245 8.0 16.1 0.00 0.00 0.00 72 1009.4
20260831003644 24 262 6.4 16.1 0.00 0.00 0.00 73 1009.4
20260831002631 23 258 11.3 20.9 0.00 0.00 0.00 74 1009.4
20260831002124 23 231 11.3 20.9 0.00 0.00 0.00 73 1009.4
20260831001618 24 228 9.7 22.5 0.00 0.00 0.00 72 1009.4
20260831001112 24 220 16.1 22.5 0.00 0.00 0.00 71 1009.4
20260831000604 24 269 8.0 20.9 0.00 0.00 0.00 72 1009.4
20260831000058 24 247 8.0 20.9 0.00 0.00 0.00 72 1009.4
20260830235552 25 257 11.3 20.9 0.00 0.00 0.00 71 1009.4
20260830235046 25 218 16.1 20.9 0.00 0.00 0.00 70 1009.4
20260830234538 25 216 9.7 22.5 0.00 0.00 0.00 69 1009.4
20260830233526 25 222 8.0 17.7 0.00 0.00 0.00 69 1009.7
20260830233020 25 243 16.1 17.7 0.00 0.00 0.00 69 1009.4
20260830232512 25 235 9.7 20.9 0.00 0.00 0.00 67 1009.4
20260830231500 26 252 12.9 22.5 0.00 0.00 0.00 68 1009.4
20260830230953 26 211 14.5 17.7 0.00 0.00 0.00 68 1009.7
20260830230447 26 197 12.9 20.9 0.00 0.00 0.00 67 1009.7
20260830225940 26 232 16.1 20.9 0.00 0.00 0.00 66 1009.7
20260830225434 26 232 11.3 17.7 0.00 0.00 0.00 64 1009.7
20260830224927 26 238 16.1 17.7 0.00 0.00 0.00 63 1009.7
20260830224421 26 241 9.7 17.7 0.00 0.00 0.00 64 1009.7
20260830223913 26 281 9.7 17.7 0.00 0.00 0.00 64 1009.7
20260830223407 26 224 12.9 17.7 0.00 0.00 0.00 64 1010.1
20260830222901 26 238 9.7 20.9 0.00 0.00 0.00 62 1010.1
20260830222354 26 219 17.7 22.5 0.00 0.00 0.00 61 1010.1
20260830221848 26 203 12.9 17.7 0.00 0.00 0.00 63 1010.1
20260830221342 26 202 9.7 20.9 0.00 0.00 0.00 65 1010.1
20260830220834 26 223 11.3 20.9 0.00 0.00 0.00 64 1010.1
20260830220328 26 224 11.3 20.9 0.00 0.00 0.00 65 1010.4
20260830215315 26 223 11.3 20.9 0.00 0.00 0.00 66 1010.4
20260830214808 27 251 11.3 20.9 0.00 0.00 0.00 65 1010.4
20260830214302 27 278 9.7 17.7 0.00 0.00 0.00 62 1010.7
20260830213248 26 252 12.9 20.9 0.00 0.00 0.00 65 1010.7
20260830212742 26 251 8.0 20.9 0.00 0.00 0.00 66 1010.7
20260830212236 26 193 11.3 20.9 0.00 0.00 0.00 64 1010.7
20260830211729 27 217 8.0 20.9 0.00 0.00 0.00 61 1010.7
20260830210716 27 229 14.5 20.9 0.00 0.00 0.00 61 1010.7
20260830210210 26 214 11.3 17.7 0.00 0.00 0.00 63 1011.1
20260830205157 26 202 11.3 22.5 0.00 0.00 0.00 63 1011.1
20260830204650 26 240 14.5 22.5 0.00 0.00 0.00 62 1010.7
20260830204144 26 233 14.5 24.1 0.00 0.00 0.00 61 1011.1
20260830203637 27 235 19.3 24.1 0.00 0.00 0.00 63 1011.1
20260830203130 26 257 11.3 22.5 0.00 0.00 0.00 63 1011.1
20260830202624 26 279 11.3 22.5 0.00 0.00 0.00 63 1011.1
20260830202117 27 213 11.3 20.9 0.00 0.00 0.00 61 1011.1
20260830201610 27 252 9.7 20.9 0.00 0.00 0.00 61 1011.1
20260830201104 27 264 12.9 20.9 0.00 0.00 0.00 62 1011.1
20260830200558 27 246 6.4 17.7 0.00 0.00 0.00 63 1011.1
20260830195544 26 37 11.3 17.7 0.00 0.00 0.00 63 1011.1
20260830195038 27 215 12.9 20.9 0.00 0.00 0.00 62 1011.1
20260830194532 27 234 6.4 20.9 0.00 0.00 0.00 63 1011.1
20260830194026 26 227 8.0 20.9 0.00 0.00 0.00 64 1011.1
20260830193518 27 244 14.5 16.1 0.00 0.00 0.00 63 1011.1
20260830193012 26 301 8.0 17.7 0.00 0.00 0.00 64 1011.4
20260830192506 26 237 8.0 22.5 0.00 0.00 0.00 64 1011.4
20260830191452 26 230 16.1 22.5 0.00 0.00 0.00 65 1011.4
20260830190946 26 221 17.7 25.7 0.00 0.00 0.00 61 1011.4
20260830190440 26 223 14.5 25.7 0.00 0.00 0.00 63 1011.8
20260830185426 26 272 16.1 17.7 0.00 0.00 0.00 63 1011.4
20260830184919 26 257 6.4 17.7 0.00 0.00 0.00 65 1011.4
20260830184413 26 249 14.5 17.7 0.00 0.00 0.00 63 1011.4
20260830183400 26 297 9.7 22.5 0.00 0.00 0.00 61 1011.4
20260830182854 26 234 6.4 17.7 0.00 0.00 0.00 60 1011.4
20260830182347 26 249 11.3 20.9 0.00 0.00 0.00 61 1011.8
20260830181334 27 245 8.0 17.7 0.00 0.00 0.00 61 1011.4
20260830180828 27 240 8.0 16.1 0.00 0.00 0.00 60 1011.8
20260830180321 27 221 11.3 14.5 0.00 0.00 0.00 60 1011.8
20260830175814 28 231 9.7 14.5 0.00 0.00 0.00 59 1011.4
20260830175308 29 273 9.7 11.3 0.00 0.00 0.00 55 1011.4
20260830174802 29 260 1.6 11.3 0.00 0.00 0.00 52 1011.4
20260830174255 29 160 8.0 9.7 0.00 0.00 0.00 51 1011.4
20260830173748 28 7 0.0 6.4 0.00 0.00 0.00 54 1011.4
20260830173242 28 55 3.2 9.7 0.00 0.00 0.00 54 1011.4
20260830172735 28 119 4.8 9.7 0.00 0.00 0.00 55 1011.4
20260830172228 28 184 6.4 6.4 0.00 0.00 0.00 56 1011.4
20260830171723 27 241 1.6 11.3 0.00 0.00 0.00 58 1011.1
20260830171216 27 257 6.4 11.3 0.00 0.00 0.00 59 1011.4
20260830170202 27 142 6.4 11.3 0.00 0.00 0.00 59 1011.4
20260830165656 27 81 6.4 11.3 0.00 0.00 0.00 62 1011.1
20260830165150 27 234 1.6 11.3 0.00 0.00 0.00 63 1011.1
20260830164137 28 56 3.2 6.4 0.00 0.00 0.00 61 1011.1
20260830163631 27 250 0.0 6.4 0.00 0.00 0.00 63 1011.1
20260830163123 26 34 3.2 6.4 0.00 0.00 0.00 64 1011.1
20260830162111 26 9 0.0 6.4 0.00 0.00 0.00 67 1011.1
20260830161605 27 215 1.6 4.8 0.00 0.00 0.00 65 1011.1
20260830161057 27 351 1.6 4.8 0.00 0.00 0.00 66 1011.1
20260830160551 26 12 0.0 6.4 0.00 0.00 0.00 68 1011.1
20260830160045 25 128 1.6 6.4 0.00 0.00 0.00 70 1011.4
20260830155538 26 136 3.2 4.8 0.00 0.00 0.00 68 1011.1
20260830155032 25 24 0.0 6.4 0.00 0.00 0.00 71 1011.4
20260830154018 25 116 6.4 9.7 0.00 0.00 0.00 70 1011.4
20260830153005 24 17 3.2 9.7 0.00 0.00 0.00 74 1011.1
20260830152459 24 169 3.2 6.4 0.00 0.00 0.00 75 1011.1
20260830151953 24 64 3.2 9.7 0.00 0.00 0.00 75 1011.4
20260830150433 25 346 0.0 4.8 0.00 0.00 0.00 73 1011.4
20260830145927 24 11 1.6 4.8 0.00 0.00 0.00 74 1011.4
20260830145419 23 33 3.2 3.2 0.00 0.00 0.00 75 1011.4
20260830144913 22 339 0.0 1.6 0.00 0.00 0.00 75 1011.4
20260830143901 22 325 0.0 1.6 0.00 0.00 0.00 78 1011.4
20260830143354 22 325 1.6 1.6 0.00 0.00 0.00 78 1011.1
20260830142847 21 325 0.0 1.6 0.00 0.00 0.00 79 1011.1
20260830142341 21 325 0.0 3.2 0.00 0.00 0.00 80 1011.1
20260830141834 21 325 1.6 3.2 0.00 0.00 0.00 80 1011.1
20260830141327 21 327 0.0 3.2 0.00 0.00 0.00 80 1011.1
20260830140821 21 328 1.6 3.2 0.00 0.00 0.00 80 1011.1
20260830140315 21 334 1.6 3.2 0.00 0.00 0.00 80 1011.1
20260830135808 21 333 0.0 3.2 0.00 0.00 0.00 81 1010.7
20260830135302 21 3 1.6 3.2 0.00 0.00 0.00 81 1010.7
20260830134755 20 331 1.6 3.2 0.00 0.00 0.00 82 1010.7
20260830134248 20 329 0.0 1.6 0.00 0.00 0.00 82 1010.7
20260830133742 20 328 0.0 3.2 0.00 0.00 0.00 82 1010.7
20260830132729 20 322 1.6 1.6 0.00 0.00 0.00 82 1010.7
20260830132222 20 321 0.0 1.6 0.00 0.00 0.00 82 1010.4
20260830131716 20 321 0.0 1.6 0.00 0.00 0.00 82 1010.4
20260830131209 20 321 1.6 1.6 0.00 0.00 0.00 82 1010.4
20260830130703 20 316 1.6 3.2 0.00 0.00 0.00 82 1010.1
20260830130157 20 314 0.0 4.8 0.00 0.00 0.00 83 1010.4
20260830125649 20 305 0.0 4.8 0.00 0.00 0.00 83 1010.4